Location: Houston
(29.7631°N, 95.3631°W)
Time: 13:38:55
(UTC-05:00)

UNISAT 6 - Pass Details

Date: 23 September 2021
Orbit: 606 x 687 km, 97.7° (Epoch: 27 October)

Event Time Altitude Azimuth Distance (km) Brightness Sun altitude
Rises 20:37:56 0° 4° (N) 3,058 ? -18.5°
Reaches altitude 10° 20:40:15 10° 359° (N) 2,137 ? -19.0°
Maximum altitude 20:44:46 50° 285° (WNW) 866 ? -19.9°
Drops below altitude 10° 20:49:13 10° 210° (SSW) 2,101 ? -20.9°
Sets 20:51:29 0° 205° (SSW) 3,001 ? -21.3°
